Volver al catálogo

CZ-6A DEB

ActivoPO
NORAD 54886·DEBRIS·🇨🇳 China

Lanzado Nov 11, 2022 desde Taiyuan Satellite Launch Center

Loading…

Próximos Pases (próximas 24 horas)

TLE

ActualizadoSource: Space-Track

Época: Sep 14, 2026, 11:14 UTC

1 54886U 22151PX  26257.46809935  .00000077  00000-0  15596-3 0  9991
2 54886  98.9130  78.9358 0492755 268.9482  85.5168 13.18835627184778

Sigue CZ-6A DEB en tiempo real con AllMySat

Download on the App Store